[[{"header":{"parameterUnit":"m.s-1","parameterCategory":2,"la1":30.2992,"la2":30.254,"lo1":-89.0895,"lo2":-89.0443,"dy":0.0025,"dx":0.0025,"nx":19,"ny":19,"refTime":"2026-05-07T09:00:00:Z","depth":"0","parameterNumber":2,"parameterNumberName":"U-component_of_CURRENTS"},"data":[0,0,0,0.2599,0.26,0.2638,0.2638,0.2813,0.2815,0,0,0,0,0,0,0,0,0,0,0,0.2587,0.2587,0.2599,0.26,0.2638,0.2638,0.2812,0.2815,0,0,0,0,0,0,0,0,0,0,0,0.2586,0.2587,0.2587,0.26,0.2638,0.2638,0.2812,0.2753,0,0,0,0,0,0,0,0,0,0,0.2701,0.2666,0.2587,0.2587,0.26,0.2637,0.2638,0.2749,0.2757,0.283,0,0.283,0,0.2828,0.2829,0.2829,0,0,0,0.2605,0.2659,0.2673,0.2587,0.26,0.2637,0.2622,0.2753,0.2762,0.2841,0.2832,0.2838,0.2831,0.283,0.2831,0.3035,0.3035,0,0,0.2603,0.2597,0.2666,0.2678,0.2607,0.2621,0.2623,0.2757,0.2767,0.2833,0.2842,0.2834,0.2832,0.2833,0.3034,0.3035,0,0,0,0.2593,0.2595,0.2603,0.2672,0.2669,0.2622,0.2624,0.276,0.2763,0.2843,0.2836,0.2833,0.2835,0.3033,0.3034,0.3066,0,0,0,0.2592,0.2589,0.2602,0.2599,0.2666,0.2697,0.2625,0.2754,0.2768,0.2835,0.2833,0.2837,0.3033,0.3034,0.3063,0.3092,0,0,0,0.2585,0.2588,0.2591,0.2598,0.2612,0.2694,0.2704,0.2756,0.2765,0.283,0.2838,0.3032,0.3034,0.3061,0.3088,0.3139,0,0,0,0.258,0.2595,0.2591,0.2626,0.2611,0.2688,0.2703,0.2781,0.284,0.2834,0.3033,0.3034,0.306,0.3086,0.3136,0.304,0.3045,0,0,0.2598,0.2597,0.2623,0.2621,0.2681,0.2683,0.2777,0.286,0.2887,0.2997,0.3001,0.3064,0.3088,0.3138,0.313,0.3132,0,0,0,0.263,0.2635,0.2662,0.2691,0.2746,0.2799,0.2862,0.2907,0.3001,0.2926,0.3087,0.3102,0.3132,0.3069,0.3071,0.2995,0.3041,0.3041,0.3041,0.2615,0.2653,0.2695,0.2745,0.2804,0.2898,0.2969,0.304,0.3061,0.3109,0.3144,0.3228,0.316,0.3161,0.3084,0.3154,0.3155,0.3155,0.3155,0.2631,0.2647,0.2708,0.2758,0.2835,0.2919,0.3068,0.3108,0.3239,0.321,0.3237,0.3125,0.3165,0.3082,0.3157,0.3157,0.3156,0.3156,0.3156,0.2599,0.2611,0.2647,0.2722,0.281,0.2925,0.3063,0.3183,0.3265,0.3323,0.3254,0.3251,0.3165,0.3329,0.3329,0.333,0.333,0.333,0.333,0.2546,0.2584,0.2603,0.2688,0.2734,0.2856,0.3071,0.3177,0.3277,0.3302,0.3301,0.3184,0.3281,0.3259,0.3336,0.3335,0.3334,0.3334,0.3333,0.2502,0.2514,0.2546,0.2579,0.2692,0.275,0.2968,0.3131,0.3258,0.327,0.3177,0.3292,0.3279,0.3274,0.3253,0.3324,0.3324,0.3324,0.3324,0.2456,0.2471,0.2491,0.253,0.2608,0.2705,0.2767,0.29,0.3043,0.3053,0.3133,0.3044,0.3048,0.3017,0.3019,0.2991,0.2994,0.2994,0.2994,0.2428,0.2448,0.2438,0.2485,0.2558,0.2625,0.2584,0.2554,0.2764,0.2977,0.3054,0.3068,0.2934,0.2946,0.2892,0.2901,0.2853,0,0]},{"header":{"parameterUnit":"m.s-1","parameterCategory":2,"la1":30.2992,"la2":30.254,"lo1":-89.0895,"lo2":-89.0443,"dy":0.0025,"dx":0.0025,"nx":19,"ny":19,"refTime":"2026-05-07T09:00:00:Z","depth":"0","parameterNumber":3,"parameterNumberName":"V-component_of_CURRENTS"},"data":[0,0,0,0.0388,0.0389,0.0421,0.0421,0.0488,0.0488,0,0,0,0,0,0,0,0,0,0,0,0.0377,0.0377,0.0388,0.0389,0.0421,0.0421,0.0487,0.0488,0,0,0,0,0,0,0,0,0,0,0,0.0376,0.0377,0.0377,0.0389,0.0421,0.0421,0.0487,0.0457,0,0,0,0,0,0,0,0,0,0,0.0423,0.0407,0.0377,0.0377,0.0389,0.0421,0.0421,0.0456,0.0459,0.048,0,0.0483,0,0.0488,0.0493,0.0493,0,0,0,0.0391,0.0404,0.0414,0.0377,0.039,0.0421,0.0407,0.0457,0.0461,0.0485,0.0484,0.0486,0.0489,0.0493,0.0494,0.0604,0.0605,0,0,0.0389,0.0384,0.0411,0.0416,0.0397,0.0406,0.0408,0.046,0.0464,0.0484,0.0488,0.049,0.0494,0.0494,0.0604,0.0604,0,0,0,0.0383,0.0382,0.039,0.0413,0.0418,0.0407,0.0409,0.0461,0.0464,0.0488,0.0491,0.0494,0.0495,0.0603,0.0604,0.0695,0,0,0,0.0382,0.0379,0.0389,0.0386,0.0416,0.0436,0.041,0.046,0.0466,0.049,0.0494,0.0496,0.0602,0.0603,0.0691,0.0762,0,0,0,0.0375,0.0378,0.0381,0.0386,0.0399,0.0436,0.0441,0.0461,0.0468,0.0493,0.0496,0.0602,0.0603,0.0687,0.0755,0.0816,0,0,0,0.0369,0.0398,0.0381,0.0426,0.0399,0.0472,0.0441,0.0494,0.0523,0.0495,0.0602,0.0604,0.0686,0.075,0.0811,0.0875,0.0901,0,0,0.0408,0.0402,0.0434,0.0421,0.0511,0.0468,0.0562,0.0576,0.0551,0.0585,0.0588,0.0692,0.0754,0.0815,0.0966,0.099,0,0,0,0.045,0.0474,0.0501,0.0543,0.0578,0.0629,0.0628,0.0631,0.0663,0.0573,0.0699,0.0736,0.0771,0.0799,0.0819,0.0785,0.0611,0.0611,0.0611,0.0494,0.0528,0.0606,0.0656,0.0702,0.0744,0.0785,0.0786,0.0743,0.0768,0.0814,0.0932,0.0963,0.0978,0.0943,0.08,0.0801,0.0801,0.0801,0.0583,0.0638,0.0688,0.0773,0.0825,0.0894,0.0943,0.0926,0.0985,0.0911,0.0939,0.0899,0.1005,0.0959,0.0807,0.0806,0.0806,0.0805,0.0805,0.0621,0.0657,0.0707,0.0835,0.0943,0.1002,0.1149,0.1138,0.109,0.1133,0.1141,0.1139,0.1096,0.1133,0.1134,0.1135,0.1135,0.1136,0.1136,0.064,0.0698,0.0792,0.0914,0.1012,0.1156,0.1279,0.1343,0.134,0.1277,0.1276,0.1148,0.1034,0.1017,0.1145,0.1144,0.1142,0.1142,0.1141,0.0707,0.0724,0.087,0.0971,0.1211,0.1433,0.1517,0.1642,0.1633,0.1629,0.1393,0.1341,0.1324,0.1307,0.1297,0.149,0.149,0.149,0.149,0.0743,0.0764,0.0967,0.1148,0.1378,0.1572,0.1877,0.1925,0.1741,0.1618,0.1517,0.144,0.1427,0.1408,0.139,0.1378,0.1588,0.1588,0.1587,0.0806,0.086,0.1015,0.1195,0.1464,0.1757,0.207,0.2166,0.1822,0.1583,0.1464,0.146,0.133,0.1313,0.1263,0.1239,0.1211,0,0]}],[{"header":{"parameterUnit":"m.s-1","parameterCategory":2,"la1":30.2992,"la2":30.254,"lo1":-89.0895,"lo2":-89.0443,"dy":0.0025,"dx":0.0025,"nx":19,"ny":19,"refTime":"2026-05-07T09:00:00:Z","depth":"2","parameterNumber":2,"parameterNumberName":"U-component_of_CURRENTS"},"data":[0,0,0,0.2428,0.2429,0.2484,0.2484,0.2645,0.2646,0,0,0,0,0,0,0,0,0,0,0,0.2411,0.2411,0.2428,0.2429,0.2484,0.2484,0.2644,0.2646,0,0,0,0,0,0,0,0,0,0,0,0.2411,0.2411,0.2411,0.2429,0.2484,0.2484,0.2644,0.2582,0,0,0,0,0,0,0,0,0,0,0.2518,0.2487,0.2411,0.2411,0.243,0.2484,0.2484,0.2578,0.2586,0.2643,0,0.2647,0,0.2649,0.2658,0.2659,0,0,0,0.2437,0.2481,0.2494,0.2411,0.243,0.2484,0.2461,0.2582,0.2591,0.2654,0.2649,0.2654,0.2652,0.2659,0.266,0.2847,0.2848,0,0,0.2434,0.2428,0.2487,0.2499,0.2441,0.246,0.2463,0.2586,0.2598,0.2649,0.2657,0.2655,0.2661,0.2662,0.2846,0.2847,0,0,0,0.242,0.2426,0.2434,0.2493,0.2495,0.2461,0.2465,0.2592,0.2594,0.2659,0.2657,0.2662,0.2664,0.2846,0.2847,0.2878,0,0,0,0.2419,0.2417,0.2432,0.2431,0.2492,0.2532,0.2468,0.2585,0.2599,0.2656,0.2662,0.2666,0.2845,0.2846,0.2876,0.2901,0,0,0,0.2409,0.2417,0.242,0.243,0.245,0.253,0.2539,0.2588,0.2598,0.2659,0.2666,0.2844,0.2846,0.2873,0.2897,0.2955,0,0,0,0.2405,0.2422,0.242,0.2454,0.2449,0.2523,0.2538,0.2616,0.2673,0.2663,0.2845,0.2847,0.2873,0.2894,0.2952,0.2822,0.2825,0,0,0.2426,0.2425,0.2448,0.2447,0.2504,0.2516,0.2605,0.2687,0.2715,0.281,0.2814,0.2877,0.2897,0.2954,0.2917,0.2917,0,0,0,0.2455,0.246,0.2482,0.2512,0.2565,0.2621,0.2686,0.2731,0.2825,0.2753,0.2901,0.2914,0.2948,0.2865,0.2866,0.2854,0.2854,0.2854,0.2854,0.2446,0.2479,0.2517,0.2561,0.2618,0.2714,0.2782,0.2855,0.2876,0.2927,0.2957,0.3048,0.2959,0.2958,0.2972,0.2972,0.2972,0.2972,0.2972,0.2462,0.2474,0.2531,0.2577,0.2653,0.2739,0.2877,0.2921,0.3047,0.3023,0.3054,0.2924,0.296,0.2975,0.2975,0.2974,0.2974,0.2974,0.2974,0.2435,0.2444,0.2481,0.2552,0.2642,0.2753,0.288,0.3002,0.3079,0.3134,0.3055,0.3052,0.3068,0.3153,0.3153,0.3154,0.3154,0.3154,0.3154,0.2384,0.2421,0.2442,0.2525,0.2575,0.2698,0.2905,0.2998,0.3087,0.3099,0.3097,0.311,0.3104,0.308,0.316,0.3159,0.3158,0.3158,0.3157,0.234,0.2353,0.2387,0.2424,0.254,0.2575,0.2782,0.2907,0.304,0.3034,0.3079,0.3079,0.3063,0.306,0.3036,0.31,0.31,0.31,0.31,0.2293,0.2307,0.2332,0.2378,0.245,0.2525,0.2512,0.2584,0.2769,0.2804,0.2817,0.2713,0.2723,0.2682,0.2688,0.2654,0.2619,0.2618,0.2617,0.2262,0.2281,0.2281,0.2336,0.24,0.2427,0.228,0.2129,0.2277,0.2596,0.271,0.3072,0.295,0.2953,0.2913,0.2914,0.2868,0,0]},{"header":{"parameterUnit":"m.s-1","parameterCategory":2,"la1":30.2992,"la2":30.254,"lo1":-89.0895,"lo2":-89.0443,"dy":0.0025,"dx":0.0025,"nx":19,"ny":19,"refTime":"2026-05-07T09:00:00:Z","depth":"2","parameterNumber":3,"parameterNumberName":"V-component_of_CURRENTS"},"data":[0,0,0,0.0291,0.0292,0.0328,0.0328,0.0382,0.0383,0,0,0,0,0,0,0,0,0,0,0,0.0278,0.0278,0.0291,0.0292,0.0328,0.0328,0.0382,0.0383,0,0,0,0,0,0,0,0,0,0,0,0.0277,0.0278,0.0278,0.0292,0.0328,0.0328,0.0382,0.0353,0,0,0,0,0,0,0,0,0,0,0.0317,0.0304,0.0278,0.0278,0.0292,0.0328,0.0328,0.0351,0.0355,0.0367,0,0.0372,0,0.0379,0.0386,0.0386,0,0,0,0.0293,0.0301,0.031,0.0278,0.0292,0.0328,0.0312,0.0353,0.0357,0.0371,0.0373,0.0375,0.038,0.0386,0.0387,0.0481,0.0482,0,0,0.0291,0.0286,0.0307,0.0312,0.0301,0.0311,0.0313,0.0355,0.036,0.0373,0.0376,0.038,0.0387,0.0387,0.0481,0.0481,0,0,0,0.0284,0.0284,0.0293,0.031,0.0316,0.0312,0.0315,0.0358,0.036,0.0377,0.0381,0.0387,0.0388,0.048,0.0481,0.0569,0,0,0,0.0283,0.028,0.0292,0.0289,0.0315,0.0337,0.0316,0.0357,0.0362,0.0381,0.0387,0.0388,0.0479,0.048,0.0565,0.0635,0,0,0,0.0276,0.028,0.0283,0.0289,0.0304,0.0336,0.0341,0.0358,0.0365,0.0386,0.0388,0.0479,0.048,0.0562,0.0628,0.0688,0,0,0,0.027,0.0298,0.0283,0.0327,0.0303,0.0372,0.0341,0.0391,0.0416,0.0387,0.0479,0.0481,0.0561,0.0623,0.0684,0.0723,0.0747,0,0,0.0307,0.0302,0.0332,0.0321,0.0406,0.0367,0.0454,0.0466,0.044,0.0464,0.0466,0.0567,0.0627,0.0687,0.0809,0.083,0,0,0,0.0347,0.037,0.0395,0.0437,0.0469,0.0518,0.0515,0.0517,0.0544,0.046,0.0572,0.0608,0.0643,0.0657,0.0674,0.0488,0.0488,0.0487,0.0487,0.0391,0.0423,0.0497,0.0544,0.0586,0.0625,0.0662,0.066,0.0618,0.0641,0.0683,0.0798,0.0814,0.0827,0.0669,0.067,0.067,0.067,0.0671,0.0478,0.0531,0.0578,0.066,0.0708,0.0774,0.0812,0.0795,0.0846,0.0777,0.0804,0.0754,0.0852,0.0678,0.0676,0.0675,0.0675,0.0674,0.0674,0.0518,0.0552,0.0602,0.0724,0.0829,0.0882,0.1017,0.1004,0.0952,0.0989,0.0986,0.0984,0.0863,0.0994,0.0995,0.0996,0.0996,0.0997,0.0997,0.0538,0.0594,0.0687,0.0805,0.0902,0.104,0.115,0.1201,0.1186,0.1116,0.1115,0.0908,0.0897,0.0882,0.1006,0.1004,0.1003,0.1002,0.1002,0.0603,0.062,0.0763,0.0863,0.1098,0.1298,0.1365,0.1455,0.1451,0.1432,0.1177,0.117,0.1151,0.1135,0.1126,0.1306,0.1306,0.1306,0.1306,0.0637,0.0658,0.0858,0.1037,0.1258,0.1429,0.1653,0.1639,0.1501,0.1361,0.1358,0.1279,0.1266,0.1247,0.1229,0.1218,0.1423,0.1423,0.1423,0.0696,0.0749,0.0904,0.1084,0.1342,0.1596,0.1788,0.1722,0.1458,0.1424,0.1341,0.1321,0.1193,0.1177,0.1131,0.1109,0.1084,0,0]}],[{"header":{"parameterUnit":"m.s-1","parameterCategory":2,"la1":30.2992,"la2":30.254,"lo1":-89.0895,"lo2":-89.0443,"dy":0.0025,"dx":0.0025,"nx":19,"ny":19,"refTime":"2026-05-07T09:00:00:Z","depth":"4","parameterNumber":2,"parameterNumberName":"U-component_of_CURRENTS"},"data":[0,0,0,0.1441,0.1444,0.1575,0.1575,0.1694,0.1695,0,0,0,0,0,0,0,0,0,0,0,0.1396,0.1397,0.1441,0.1445,0.1575,0.1575,0.1694,0.1695,0,0,0,0,0,0,0,0,0,0,0,0.1395,0.1396,0.1398,0.1445,0.1575,0.1576,0.1693,0.1605,0,0,0,0,0,0,0,0,0,0,0.1484,0.146,0.1396,0.1398,0.1446,0.1575,0.1576,0.1601,0.1611,0.1623,0,0.1654,0,0.1681,0.1702,0.1703,0,0,0,0.1437,0.1453,0.1481,0.1398,0.1447,0.1575,0.1514,0.1607,0.1617,0.1635,0.1656,0.1661,0.1683,0.1703,0.1704,0.1828,0.1829,0,0,0.143,0.1424,0.1474,0.1488,0.1496,0.151,0.1518,0.1614,0.1633,0.1657,0.1664,0.1685,0.1704,0.1705,0.1828,0.1829,0,0,0,0.1414,0.1419,0.1446,0.1483,0.1513,0.1514,0.1523,0.1629,0.1637,0.1666,0.1687,0.1704,0.1706,0.1827,0.1828,0.1884,0,0,0,0.141,0.141,0.1443,0.1441,0.1512,0.1583,0.1537,0.163,0.1642,0.1686,0.1704,0.1707,0.1827,0.1828,0.1881,0.1889,0,0,0,0.1387,0.1408,0.1426,0.144,0.15,0.1582,0.1595,0.1633,0.1655,0.1703,0.1707,0.1826,0.1828,0.1879,0.1886,0.1941,0,0,0,0.1371,0.139,0.1426,0.1459,0.1499,0.1567,0.1595,0.1676,0.1722,0.1705,0.1827,0.1828,0.1878,0.1883,0.1938,0.1688,0,0,0,0.1374,0.1391,0.1407,0.1441,0.1492,0.1547,0.1627,0.1715,0.174,0.1789,0.1793,0.1882,0.1885,0.194,0.1763,0,0,0,0,0.1392,0.1408,0.1427,0.1477,0.1533,0.1614,0.1698,0.1746,0.1841,0.1776,0.1892,0.1892,0.1925,0.1771,0.1834,0.1834,0.1834,0.1834,0.1834,0.1388,0.1415,0.1445,0.1497,0.1556,0.168,0.1754,0.1837,0.1863,0.1926,0.1946,0.2033,0.1873,0.1963,0.1963,0.1963,0.1963,0.1964,0.1964,0.1378,0.1383,0.1456,0.1497,0.1596,0.1691,0.1831,0.1897,0.2015,0.2005,0.2035,0.1849,0.197,0.1968,0.1968,0.1967,0.1966,0.1966,0.1966,0.1346,0.1347,0.1402,0.148,0.1599,0.1726,0.1834,0.1962,0.2058,0.2108,0.1966,0.2075,0.2062,0.2146,0.2147,0.2147,0.2147,0.2147,0.2148,0.1277,0.1324,0.1361,0.1463,0.1529,0.1659,0.1861,0.1934,0.2064,0.1994,0.2139,0.2094,0.2088,0.2073,0.2152,0.2151,0.2151,0.215,0.215,0.1194,0.1243,0.1276,0.1331,0.1447,0.1512,0.1739,0.184,0.1911,0.1913,0.1933,0.1942,0.1899,0.1898,0.1874,0.1898,0.1895,0.1892,0,0.1135,0.116,0.1187,0.1212,0.1249,0.1394,0.1442,0.1574,0.1706,0.1642,0.1889,0.1904,0.1911,0.1854,0.1849,0.1814,0,0,0,0.1077,0.1101,0.1078,0.1109,0.1123,0.124,0.1435,0.1429,0.17,0.1706,0.1818,0.1838,0.2012,0.2166,0.2123,0.2116,0.2088,0,0]},{"header":{"parameterUnit":"m.s-1","parameterCategory":2,"la1":30.2992,"la2":30.254,"lo1":-89.0895,"lo2":-89.0443,"dy":0.0025,"dx":0.0025,"nx":19,"ny":19,"refTime":"2026-05-07T09:00:00:Z","depth":"4","parameterNumber":3,"parameterNumberName":"V-component_of_CURRENTS"},"data":[0,0,0,0.0146,0.0147,0.0182,0.0182,0.0201,0.0201,0,0,0,0,0,0,0,0,0,0,0,0.0133,0.0133,0.0146,0.0147,0.0182,0.0182,0.0201,0.0201,0,0,0,0,0,0,0,0,0,0,0,0.0133,0.0133,0.0134,0.0147,0.0182,0.0182,0.0201,0.0181,0,0,0,0,0,0,0,0,0,0,0.015,0.0143,0.0133,0.0134,0.0147,0.0182,0.0182,0.018,0.0182,0.0178,0,0.0185,0,0.0194,0.0202,0.0202,0,0,0,0.0146,0.0141,0.015,0.0134,0.0148,0.0182,0.0166,0.0181,0.0183,0.0181,0.0186,0.0187,0.0194,0.0202,0.0202,0.0236,0.0236,0,0,0.0144,0.0139,0.0149,0.0152,0.0159,0.0165,0.0167,0.0183,0.0185,0.0186,0.0187,0.0195,0.0202,0.0202,0.0236,0.0236,0,0,0,0.0139,0.0138,0.0147,0.0151,0.0159,0.0166,0.0168,0.0185,0.0188,0.0187,0.0195,0.0202,0.0202,0.0236,0.0236,0.031,0,0,0,0.0138,0.0135,0.0146,0.0144,0.0159,0.0176,0.017,0.0187,0.0189,0.0195,0.0202,0.0202,0.0235,0.0236,0.0307,0.0358,0,0,0,0.0131,0.0135,0.0139,0.0143,0.0159,0.0176,0.018,0.0187,0.0193,0.0202,0.0202,0.0235,0.0236,0.0304,0.0353,0.0384,0,0,0,0.0124,0.0144,0.0139,0.0169,0.0159,0.0205,0.0181,0.0213,0.0225,0.0202,0.0235,0.0236,0.0304,0.035,0.0381,0.0378,0,0,0,0.0147,0.0146,0.0166,0.0163,0.0226,0.02,0.0257,0.0258,0.0231,0.0227,0.0228,0.0308,0.0353,0.0383,0.0418,0,0,0,0,0.0173,0.0191,0.0209,0.0244,0.0266,0.03,0.0294,0.0291,0.0296,0.0241,0.0301,0.0327,0.0344,0.0333,0.0239,0.0239,0.0239,0.0239,0.0239,0.0201,0.0226,0.0279,0.0316,0.0346,0.0371,0.039,0.0379,0.0344,0.0355,0.0381,0.045,0.0441,0.0363,0.0364,0.0364,0.0364,0.0365,0.0365,0.026,0.0296,0.0338,0.0398,0.0433,0.0479,0.0492,0.0476,0.0493,0.0445,0.0457,0.0404,0.0372,0.037,0.0369,0.0369,0.0368,0.0367,0.0367,0.0286,0.0308,0.035,0.0444,0.0526,0.0562,0.0638,0.062,0.0574,0.0592,0.0561,0.0503,0.0503,0.0591,0.0591,0.0592,0.0592,0.0592,0.0593,0.0292,0.0337,0.0406,0.0501,0.0578,0.0672,0.0731,0.0742,0.0699,0.066,0.0618,0.0527,0.0519,0.0516,0.0598,0.0597,0.0597,0.0596,0.0596,0.0325,0.0343,0.0448,0.0525,0.0697,0.0764,0.0827,0.0826,0.0834,0.079,0.0681,0.0675,0.065,0.064,0.0639,0.0761,0.0762,0.0762,0,0.0336,0.0355,0.0494,0.0621,0.0754,0.0824,0.0875,0.0881,0.0804,0.0786,0.0796,0.0672,0.0667,0.0635,0.0627,0.0625,0,0,0,0.0362,0.0403,0.05,0.0629,0.0781,0.0847,0.0889,0.0874,0.0823,0.0823,0.077,0.0768,0.0689,0.0615,0.0562,0.0553,0.0545,0,0]}]]